917  
ASUS45 KREV 260410  
RWRNV  
NEVADA REGIONAL WEATHER ROUNDUP  
NATIONAL WEATHER SERVICE RENO NV  
900 PM PDT MON MAR 25 2019  
 
NOTE: "FAIR" INDICATES FEW OR NO CLOUDS BELOW 12,000 FEET WITH NO  
SIGNIFICANT WEATHER AND/OR S TO VISIBILITY
.  
 
NVZ001-003-004-260500-  
WESTERN NEVADA  
 
CITY SKY/WX TMP DP RH WIND PRES REMARKS
 
RENO MOCLDY 52 25 35 SW6 29.98F  
CARSON CITY FAIR 50 23 34 CALM 29.98F  
MINDEN FAIR 50 19 29 S25G31 29.99F  
SLIDE MTN N/A 27 23 86 W49 N/A  
PYRAMID LAKE N/A 54 N/A N/A SW10 N/A  
FALLON MOCLDY 56 20 24 VRB3 29.96R  
LOVELOCK MOCLDY 53 22 29 SW3 29.96R  
HAWTHORNE CLEAR 55 9 15 SE12 29.98S  

 
 
NVZ002-CAZ072-073-260500-  
NORTHERN AND CENTRAL SIERRA  
 
CITY SKY/WX TMP DP RH WIND PRES REMARKS
 
S. LAKE TAHOE MOCLDY 40 27 59 S12G28 30.00F  
TRUCKEE MOCLDY 37 27 65 SW18G29 30.04R  
SQUAW VLY 8000 N/A 30 27 86 S17 N/A  
MAMMOTH LAKES FAIR 44 4 19 S5 30.11F  
BRIDGEPORT FAIR 56 14 19 SW10G18 30.02S  

 
 
NVZ030-031-036-260500-  
NORTHERN NEVADA  
 
CITY SKY/WX TMP DP RH WIND PRES REMARKS
 
ELKO CLOUDY 50 25 37 NW6 30.04R  
WINNEMUCCA MOCLDY 50 25 37 W13 29.97R  
WENDOVER MOCLDY 47 38 71 W5 30.14S  

 
 
NVZ035-037-260500-  
CENTRAL NEVADA  
 
CITY SKY/WX TMP DP RH WIND PRES REMARKS
 
ELY MOCLDY 37 25 61 S10 30.16R  
EUREKA N/A 47 22 37 CALM 30.09S  

 
 
NVZ013-014-260500-  
SOUTH CENTRAL NEVADA  
 
CITY SKY/WX TMP DP RH WIND PRES REMARKS
 
TONOPAH PTCLDY 50 19 29 SE15 30.09S  

 
 
NVZ017-020-022-260500-  
SOUTHERN NEVADA  
 
CITY SKY/WX TMP DP RH WIND PRES REMARKS
 
LAS VEGAS PTCLDY 70 24 17 CALM 30.03R  
N. LAS VEGAS PTCLDY 67 25 20 N3 30.04R  
NELLIS AFB CLEAR 63 26 24 N5 30.04  
HENDERSON CLEAR 61 27 27 S7 30.07S  
MERCURY CLEAR 60 21 22 S7 30.07R  

 
 
 
CLICK HERE TO GO TO PREVIOUS BULLETINS.

The Nexlab NV Page Main Text Page